Home > Weather > Cartagena > Past weeks

Flag for Colombia Weather for the Past 2 Weeks in Cartagena, Colombia

Now
81 °F

Passing clouds.


Feels Like: 87 °F
Forecast: 78 / 88 °F
Wind: 10 mph from Northeast

Location: Cartagena / Rafael Nunez

Current Time: Feb 9, 2016 at 2:07:03 AM

Latest Report: Feb 9, 2016 at 1:00 AM


Visibility: 6 mi

Pressure: 29.81 "Hg

Humidity: 89%

Dew point: 77 °F

Location of CartagenaLocation

Historic Weather in Cartagena — Graph

°F

Cartagena Temperature Yesterday

Maximum temperature yesterday: 88 °F (at 10:00 AM)
Minimum temperature yesterday: 81 °F (at 12:00 AM)
Average temperature yesterday: 83 °F

High & Low Weather Summary for the Past Weeks

 TemperatureHumidityPressure
High91 °F (Feb 6, 1:00 PM)100% (Jan 30, 8:00 AM)30.35 "Hg (Jan 30, 8:00 AM)
Low41 °F (Feb 4, 3:00 AM)55% (Feb 4, 11:00 AM)29.71 "Hg (Feb 3, 4:00 PM)
Average82 °F77%29.82 "Hg
* Reported Midnight between Jan 24 and Jan 25 — Midnight between Feb 8 and Feb 9, Cartagena, Weather by CustomWeather, © 2016

Note: Actual official high and low records may vary slightly from our data, if they occured in-between our weather recording intervals... More about our weather records

Advertising

Cartagena Weather History for the Previous 24 Hours

 ConditionsComfort  
Time TempWeatherWind HumidityBarometerVisibility
12:00 AM
Tue, Feb 9
81 °FPassing clouds.14 mph89%29.81 "Hg6 mi
11:00 PM
Mon, Feb 8
81 °FPassing clouds.17 mph89%29.81 "HgN/A
10:00 PM81 °FWarm.14 mph89%29.83 "HgN/A
9:00 PM81 °FPassing clouds.14 mph89%29.80 "Hg6 mi
8:00 PM81 °FPassing clouds.10 mph84%29.78 "Hg6 mi
7:00 PM81 °FClear.9 mph84%29.76 "Hg6 mi
6:00 PM82 °FPassing clouds.9 mph79%29.73 "Hg5 mi
5:00 PM84 °FClear.14 mph74%29.72 "Hg5 mi
4:00 PM84 °FSunny.20 mph74%29.71 "Hg10 mi
3:00 PM88 °FPassing clouds.21 mph66%29.72 "Hg5 mi
2:00 PM88 °FClear.22 mph66%29.75 "Hg5 mi
1:00 PM84 °FClear.22 mph74%29.79 "Hg6 mi
12:00 PM88 °FPassing clouds.21 mph66%29.82 "HgN/A
11:00 AM88 °FPassing clouds.17 mph66%29.85 "HgN/A
10:00 AM88 °FScattered clouds.10 mph66%29.87 "HgN/A
9:00 AM84 °FScattered clouds.9 mph74%29.87 "Hg5 mi
8:00 AM81 °FScattered clouds.8 mph89%29.86 "Hg5 mi
7:00 AM81 °FPartly sunny.6 mph89%29.82 "Hg5 mi
6:00 AM81 °FPassing clouds.12 mph84%29.81 "HgN/A
5:00 AM81 °FPassing clouds.10 mph89%29.78 "HgN/A
4:00 AM81 °FPassing clouds.14 mph89%29.78 "HgN/A
3:00 AM81 °FPassing clouds.12 mph84%29.80 "HgN/A
2:00 AM81 °FPassing clouds.10 mph84%29.81 "HgN/A
Weather by CustomWeather, © 2016

See weather overviewHow to use our weather pages